Home > Weather > Sorocaba > Past weeks

Flag for Brazil Past Weather in Sorocaba, São Paulo, Brazil — Yesterday and Last 2 Weeks

Now
63 °F

Sunny.


Feels Like: 63 °F
Forecast: 55 / 84 °F
Wind: 8 mph from Southeast

Location: Campinas Aeroporto

Current Time: Aug 27, 2016 at 9:00:08 AM

Latest Report: Aug 27, 2016 at 8:00 AM


Visibility: 10 mi

Pressure: 30.15 "Hg (28.09 "Hg at 602m altitude)

Humidity: 59%

Dew Point: 48 °F

Location of SorocabaLocation

Past Weather in Sorocaba — Graph

°F

Sorocaba Temperature Yesterday

Maximum temperature yesterday: 82 °F (at 3:00 PM)
Minimum temperature yesterday: 57 °F (at 6:00 AM)
Average temperature yesterday: 69 °F

High & Low Weather Summary for the Past Weeks

 TemperatureHumidityPressure
High90 °F (Aug 19, 3:00 PM)100% (Aug 21, 9:00 AM)30.30 "Hg (Aug 21, 9:00 AM)
Low48 °F (Aug 13, 7:00 AM)11% (Aug 14, 2:00 PM)29.86 "Hg (Aug 15, 2:00 PM)
Average66 °F61%30.09 "Hg
* Reported Aug 12 7:00 AM — Aug 27 7:00 AM, Sorocaba, Weather by CustomWeather, © 2016

Note: Actual official high and low records may vary slightly from our data, if they occured in-between our weather recording intervals... More about our weather records

Advertising

Sorocaba Weather History for the Previous 24 Hours

Scroll right to see more
 ConditionsComfort  
Time TempWeatherWind HumidityBarometerVisibility
7:00 AM
Sat, Aug 27
59 °FSunny.9 mph68%30.12 "Hg10 mi
6:00 AM59 °FSunny.8 mph72%30.12 "Hg10 mi
5:00 AM59 °FClear.8 mph72%30.09 "Hg10 mi
4:00 AM61 °FClear.12 mph68%30.07 "Hg10 mi
3:00 AM63 °FClear.12 mph64%30.09 "Hg10 mi
2:00 AM63 °FClear.13 mph59%30.09 "Hg10 mi
1:00 AM63 °FClear.10 mph59%30.12 "Hg10 mi
12:00 AM64 °FClear.14 mph52%30.12 "Hg10 mi
11:00 PM
Fri, Aug 26
66 °FClear.12 mph52%30.09 "Hg10 mi
10:00 PM66 °FClear.13 mph52%30.09 "Hg10 mi
9:00 PM68 °FClear.9 mph53%30.09 "Hg10 mi
8:00 PM75 °FClear.3 mph29%30.09 "Hg10 mi
7:00 PM77 °FClear.5 mph26%30.09 "Hg10 mi
6:00 PM79 °FClear.6 mph24%30.09 "Hg10 mi
5:00 PM82 °FClear.6 mph21%30.07 "Hg10 mi
4:00 PM82 °FSunny.6 mph21%30.07 "Hg10 mi
3:00 PM82 °FSunny.2 mph23%30.07 "Hg10 mi
2:00 PM81 °FSunny.5 mph24%30.09 "Hg10 mi
1:00 PM79 °FSunny.7 mph28%30.12 "Hg10 mi
12:00 PM77 °FSunny.7 mph32%30.15 "Hg10 mi
11:00 AM75 °FSunny.6 mph34%30.15 "Hg10 mi
10:00 AM72 °FSunny.6 mph44%30.18 "Hg10 mi
9:00 AM66 °FClear.5 mph60%30.18 "Hg6 mi
Weather by CustomWeather, © 2016

See weather overviewHow to use our weather pages